QPF
0.06 0.04 0.01 0.00 0.00 0.00 0.00 0.00 0.00 0.00 0.00 0.00 0.00 0.00 0.00 0.00 0.00 0.00 0.00 0.00 0.00 0.00
0.05 0.05 0.03 0.00 0.00 0.00 0.00 0.00 0.00 0.00 0.00 0.00 0.00 0.00 0.00 0.00 0.00 0.00 0.00 0.00 0.00 0.00
0.05 0.04 0.02 0.00 0.00 0.00 0.00 0.00 0.00 0.00 0.00 0.00 0.00 0.00 0.00 0.00 0.00 0.00 0.00 0.00 0.00 0.00
0.07 0.04 0.01 0.00 0.00 0.00 0.00 0.00 0.00 0.00 0.00 0.00 0.00 0.00 0.00 0.00 0.00 0.00 0.00 0.00 0.00 0.00
0.05 0.03 0.00 0.00 0.00 0.00 0.00 0.00 0.00 0.00 0.00 0.00 0.00 0.00 0.00 0.00 0.00 0.00 0.00 0.00 0.00 0.00
0.01 0.01 0.00 0.00 0.00 0.00 0.00 0.00 0.00 0.00 0.00 0.00 0.00 0.00 0.00 0.00 0.00 0.00 0.00 0.00 0.00 0.00
0.00 0.00 0.00 0.00 0.00 0.00 0.00 0.00 0.00 0.00 0.00 0.00 0.00 0.00 0.00 0.00 0.00 0.00 0.00 0.00 0.00 0.00
0.01 0.00 0.00 0.00 0.00 0.00 0.00 0.00 0.00 0.00 0.00 0.00 0.00 0.00 0.00 0.00 0.00 0.00 0.00 0.00 0.00 0.00
0.01 0.00 0.00 0.00 0.00 0.00 0.00 0.00 0.00 0.00 0.00 0.00 0.00 0.00 0.00 0.00 0.00 0.00 0.00 0.00 0.00 0.00
0.00 0.00 0.00 0.00 0.00 0.00 0.00 0.00 0.00 0.00 0.00 0.00 0.00 0.00 0.00 0.00 0.00 0.00 0.00 0.00 0.00 0.00
0.00 0.00 0.00 0.00 0.00 0.00 0.00 0.00 0.00 0.00 0.00 0.00 0.00 0.00 0.00 0.00 0.00 0.00 0.00 0.00 0.00 0.00
0.00 0.00 0.00 0.00 0.00 0.00 0.00 0.00 0.00 0.00 0.00 0.00 0.00 0.00 0.00 0.00 0.00 0.00 0.00 0.00 0.00 0.00
0.00 0.00 0.00 0.00 0.00 0.00 0.00 0.00 0.00 0.00 0.00 0.00 0.00 0.00 0.00 0.00 0.00 0.00 0.00 0.00 0.00 0.00
0.00 0.00 0.00 0.00 0.00 0.00 0.00 0.00 0.00 0.00 0.00 0.00 0.00 0.00 0.00 0.00 0.00 0.00 0.00 0.00 0.00 0.00
MSLP
1017.01 1017.83 1018.47 1019.06 1020.10 1020.72 1021.62 1022.14 1022.71 1023.39 1023.64 1023.91 1024.27 1024.68 1024.73 1025.00 1025.58 1025.89 1026.07 1026.24 1026.74 1027.13
1017.03 1017.66 1018.35 1019.05 1019.71 1020.40 1021.27 1022.02 1022.85 1023.26 1023.93 1024.32 1024.56 1024.90 1025.19 1025.58 1026.07 1026.42 1026.72 1027.05 1027.42 1027.76
1016.88 1017.44 1018.33 1019.00 1019.81 1020.55 1021.42 1021.99 1022.95 1023.54 1024.09 1024.57 1024.87 1025.29 1025.62 1026.21 1026.64 1026.97 1027.28 1027.72 1028.07 1028.49
1016.83 1017.43 1018.48 1019.09 1020.01 1020.64 1021.39 1022.13 1023.00 1023.48 1023.99 1024.50 1024.98 1025.39 1025.91 1026.47 1027.02 1027.30 1027.76 1028.23 1028.62 1029.19
1016.80 1017.50 1018.34 1019.09 1019.84 1020.69 1021.36 1022.04 1022.68 1023.68 1024.17 1024.60 1025.09 1025.50 1026.01 1026.58 1027.35 1027.52 1028.07 1028.67 1029.04 1029.59
1016.18 1017.01 1017.86 1018.94 1019.86 1020.79 1021.55 1022.32 1022.90 1023.25 1024.33 1024.86 1025.39 1025.65 1026.14 1026.74 1027.32 1027.84 1028.28 1028.72 1029.25 1029.81
1015.74 1016.57 1017.50 1018.54 1019.48 1020.52 1021.20 1022.04 1022.85 1023.20 1023.97 1024.75 1025.37 1025.70 1026.16 1026.89 1027.39 1028.09 1028.58 1029.02 1029.60 1030.02
1015.43 1016.49 1017.60 1018.58 1019.25 1020.21 1021.31 1022.15 1022.46 1023.09 1023.78 1024.65 1025.23 1025.63 1026.27 1026.91 1027.44 1028.19 1028.79 1029.34 1029.82 1030.16
1015.72 1016.58 1017.32 1018.21 1019.26 1020.29 1021.29 1022.07 1022.82 1023.51 1023.93 1024.37 1024.86 1025.73 1026.35 1026.79 1027.54 1028.25 1028.72 1029.32 1029.87 1030.07
1015.05 1016.17 1017.49 1017.53 1019.15 1020.48 1021.03 1021.80 1022.72 1023.63 1024.18 1024.61 1024.83 1025.14 1025.77 1026.49 1027.37 1028.05 1028.72 1029.23 1029.70 1030.09
1014.64 1015.49 1016.53 1017.80 1018.21 1019.80 1021.06 1021.51 1022.51 1023.09 1024.09 1024.60 1024.97 1025.40 1025.78 1026.38 1027.24 1027.97 1028.65 1029.20 1029.54 1029.91
1014.57 1015.27 1016.22 1017.12 1018.19 1019.57 1020.55 1021.64 1022.33 1023.08 1024.04 1024.57 1025.12 1025.40 1025.83 1026.27 1027.12 1027.97 1028.65 1029.20 1029.61 1029.99
1014.54 1014.99 1015.48 1016.67 1017.34 1018.74 1020.18 1020.84 1021.92 1023.00 1023.63 1024.24 1024.59 1025.04 1025.38 1025.70 1026.51 1027.57 1028.51 1029.25 1029.58 1029.79
1013.88 1014.87 1016.32 1016.58 1017.12 1018.39 1018.97 1021.06 1021.88 1023.03 1023.55 1024.10 1024.29 1024.90 1025.34 1025.53 1026.07 1026.95 1028.01 1028.74 1029.40 1029.59
Thickness
5650 5646 5642 5640 5634 5632 5625 5622 5617 5611 5610 5608 5604 5601 5600 5597 5591 5586 5584 5580 5573 5568
5639 5637 5633 5629 5628 5626 5619 5614 5607 5605 5599 5596 5594 5591 5589 5585 5580 5575 5571 5566 5561 5557
5631 5629 5623 5620 5618 5615 5609 5605 5598 5593 5589 5585 5582 5579 5576 5571 5567 5563 5559 5554 5550 5544
5617 5616 5611 5610 5606 5604 5599 5594 5588 5585 5581 5577 5573 5569 5564 5560 5555 5553 5547 5543 5538 5532
5608 5604 5602 5600 5597 5592 5589 5585 5581 5574 5570 5567 5563 5560 5556 5552 5545 5543 5538 5532 5527 5522
5603 5600 5596 5591 5587 5580 5576 5572 5569 5567 5558 5554 5550 5549 5546 5542 5537 5532 5528 5524 5518 5513
5598 5593 5589 5584 5579 5572 5569 5565 5560 5558 5553 5546 5541 5540 5536 5531 5528 5522 5518 5513 5508 5503
5589 5583 5579 5575 5571 5565 5559 5554 5553 5550 5545 5539 5535 5532 5528 5523 5519 5513 5508 5503 5498 5494
5574 5571 5568 5564 5559 5553 5547 5544 5540 5537 5535 5533 5530 5523 5518 5515 5509 5504 5500 5495 5490 5487
5571 5566 5558 5559 5548 5540 5539 5535 5531 5526 5524 5521 5521 5519 5515 5509 5502 5497 5492 5487 5483 5478
5563 5560 5555 5547 5545 5533 5523 5525 5520 5520 5513 5510 5510 5508 5506 5502 5496 5490 5485 5480 5477 5472
5553 5551 5545 5540 5530 5520 5515 5510 5510 5508 5502 5501 5498 5498 5496 5494 5488 5482 5476 5471 5467 5463
5541 5541 5541 5534 5526 5516 5508 5507 5502 5496 5495 5493 5494 5492 5490 5489 5484 5476 5468 5462 5459 5456
5532 5528 5520 5520 5512 5507 5506 5489 5489 5485 5486 5485 5487 5484 5481 5481 5479 5472 5464 5459 5452 5449